Wetterdaten: Donnerstag, 29.11.2018
Datum Zeit Temp. Auen Feucht Auen Luftdruck Regen Richtung Richtung Windben
29.11.2018 00:00 -0,9 C 93 % 1028,2 hPa 0,0 mm O-NO 69 11,3 km/h (2 Bft)
29.11.2018 00:05 -0,9 C 93 % 1028,2 hPa 0,0 mm SO 134 9,7 km/h (2 Bft)
29.11.2018 00:10 -0,9 C 93 % 1028,1 hPa 0,0 mm SO 134 6,4 km/h (2 Bft)
29.11.2018 00:15 -0,9 C 93 % 1028,1 hPa 0,0 mm O-SO 107 6,4 km/h (2 Bft)
29.11.2018 00:20 -0,9 C 93 % 1028,1 hPa 0,0 mm O 93 8,0 km/h (2 Bft)
29.11.2018 00:25 -0,9 C 93 % 1028,1 hPa 0,0 mm O-NO 67 11,3 km/h (2 Bft)
29.11.2018 00:30 -0,9 C 93 % 1028,1 hPa 0,0 mm O-SO 103 8,0 km/h (2 Bft)
29.11.2018 00:35 -1,0 C 93 % 1028,2 hPa 0,0 mm O 88 8,0 km/h (2 Bft)
29.11.2018 00:40 -1,0 C 93 % 1028,2 hPa 0,0 mm O 82 8,0 km/h (2 Bft)
29.11.2018 00:45 -1,0 C 93 % 1028,2 hPa 0,0 mm O 82 4,8 km/h (1 Bft)
29.11.2018 00:50 -1,1 C 93 % 1028,2 hPa 0,0 mm O 83 4,8 km/h (1 Bft)
29.11.2018 00:55 -1,2 C 93 % 1028,2 hPa 0,0 mm O 82 3,2 km/h (1 Bft)
29.11.2018 01:00 -1,2 C 93 % 1028,3 hPa 0,0 mm O 82 0,0 km/h (0 Bft)
29.11.2018 01:05 -1,2 C 93 % 1028,5 hPa 0,0 mm O 82 0,0 km/h (0 Bft)
29.11.2018 01:10 -1,3 C 93 % 1028,3 hPa 0,0 mm O 82 3,2 km/h (1 Bft)
29.11.2018 01:15 -1,4 C 93 % 1028,3 hPa 0,0 mm O 82 1,6 km/h (1 Bft)
29.11.2018 01:20 -1,6 C 93 % 1028,3 hPa 0,0 mm O 82 0,0 km/h (0 Bft)
29.11.2018 01:25 -1,6 C 93 % 1028,3 hPa 0,0 mm O 82 0,0 km/h (0 Bft)
29.11.2018 01:30 -1,8 C 93 % 1028,3 hPa 0,0 mm O 82 0,0 km/h (0 Bft)
29.11.2018 01:35 -1,9 C 93 % 1028,2 hPa 0,0 mm O 82 4,8 km/h (1 Bft)
29.11.2018 01:40 -2,1 C 93 % 1028,2 hPa 0,0 mm O 82 1,6 km/h (1 Bft)
29.11.2018 01:45 -2,2 C 93 % 1028,1 hPa 0,0 mm O-SO 108 4,8 km/h (1 Bft)
29.11.2018 01:50 -2,2 C 93 % 1028,2 hPa 0,0 mm O-SO 108 3,2 km/h (1 Bft)
29.11.2018 01:55 -2,2 C 93 % 1028,2 hPa 0,0 mm O-SO 108 0,0 km/h (0 Bft)
29.11.2018 02:00 -2,2 C 93 % 1028,4 hPa 0,0 mm O-SO 108 0,0 km/h (0 Bft)
29.11.2018 02:05 -2,1 C 93 % 1028,4 hPa 0,0 mm O-SO 108 3,2 km/h (1 Bft)
29.11.2018 02:10 -2,0 C 93 % 1028,5 hPa 0,0 mm O-SO 109 4,8 km/h (1 Bft)
29.11.2018 02:15 -1,8 C 93 % 1028,4 hPa 0,0 mm O-SO 118 4,8 km/h (1 Bft)
29.11.2018 02:20 -1,7 C 93 % 1028,5 hPa 0,0 mm S-SO 161 6,4 km/h (2 Bft)
29.11.2018 02:25 -1,7 C 93 % 1028,4 hPa 0,0 mm S-SO 161 3,2 km/h (1 Bft)
29.11.2018 02:30 -1,8 C 93 % 1028,5 hPa 0,0 mm S-SO 161 4,8 km/h (1 Bft)
29.11.2018 02:35 -1,9 C 93 % 1028,4 hPa 0,0 mm S-SO 161 4,8 km/h (1 Bft)
29.11.2018 02:40 -2,2 C 93 % 1028,4 hPa 0,0 mm S-SO 161 3,2 km/h (1 Bft)
29.11.2018 02:45 -2,3 C 93 % 1028,4 hPa 0,0 mm S-SO 161 3,2 km/h (1 Bft)
29.11.2018 02:50 -2,4 C 93 % 1028,3 hPa 0,0 mm S-SO 161 0,0 km/h (0 Bft)
29.11.2018 02:55 -2,5 C 93 % 1028,3 hPa 0,0 mm S-SO 161 1,6 km/h (1 Bft)
29.11.2018 03:00 -2,6 C 93 % 1028,3 hPa 0,0 mm S-SO 161 3,2 km/h (1 Bft)
29.11.2018 03:05 -2,6 C 93 % 1028,2 hPa 0,0 mm S-SO 161 1,6 km/h (1 Bft)
29.11.2018 03:10 -2,7 C 93 % 1028,2 hPa 0,0 mm S-SO 161 0,0 km/h (0 Bft)
29.11.2018 03:15 -2,7 C 93 % 1028,1 hPa 0,0 mm S-SO 161 1,6 km/h (1 Bft)
29.11.2018 03:20 -2,8 C 93 % 1028,1 hPa 0,0 mm S-SO 161 1,6 km/h (1 Bft)
29.11.2018 03:25 -2,8 C 93 % 1028,1 hPa 0,0 mm S-SO 161 1,6 km/h (1 Bft)
29.11.2018 03:30 -2,9 C 93 % 1028,0 hPa 0,0 mm S-SO 161 3,2 km/h (1 Bft)
29.11.2018 03:35 -2,9 C 93 % 1028,0 hPa 0,0 mm S-SO 161 3,2 km/h (1 Bft)
29.11.2018 03:40 -2,9 C 93 % 1028,0 hPa 0,0 mm S-SO 161 3,2 km/h (1 Bft)
29.11.2018 03:45 -2,9 C 93 % 1027,9 hPa 0,0 mm S-SO 161 0,0 km/h (0 Bft)
29.11.2018 03:50 -2,9 C 93 % 1027,8 hPa 0,0 mm S-SO 161 0,0 km/h (0 Bft)
29.11.2018 03:55 -3,1 C 93 % 1027,6 hPa 0,0 mm S-SO 161 3,2 km/h (1 Bft)
29.11.2018 04:00 -3,4 C 93 % 1027,5 hPa 0,0 mm S-SO 161 3,2 km/h (1 Bft)
29.11.2018 04:05 -3,6 C 93 % 1027,5 hPa 0,0 mm S-SO 161 0,0 km/h (0 Bft)
29.11.2018 04:10 -3,7 C 93 % 1027,6 hPa 0,0 mm S-SO 161 0,0 km/h (0 Bft)
29.11.2018 04:15 -3,8 C 93 % 1027,6 hPa 0,0 mm S-SO 161 0,0 km/h (0 Bft)
29.11.2018 04:20 -3,8 C 93 % 1027,5 hPa 0,0 mm S-SO 161 0,0 km/h (0 Bft)
29.11.2018 04:25 -3,8 C 93 % 1027,4 hPa 0,0 mm S-SO 161 0,0 km/h (0 Bft)
29.11.2018 04:30 -3,8 C 93 % 1027,5 hPa 0,0 mm S-SO 161 0,0 km/h (0 Bft)
29.11.2018 04:35 -3,8 C 93 % 1027,6 hPa 0,0 mm S-SO 161 0,0 km/h (0 Bft)
29.11.2018 04:40 -3,8 C 93 % 1027,6 hPa 0,0 mm S-SO 161 0,0 km/h (0 Bft)
29.11.2018 04:45 -3,9 C 93 % 1027,5 hPa 0,0 mm S-SO 161 0,0 km/h (0 Bft)
29.11.2018 04:50 -3,9 C 93 % 1027,5 hPa 0,0 mm S-SO 161 0,0 km/h (0 Bft)
29.11.2018 04:55 -3,9 C 93 % 1027,4 hPa 0,0 mm S-SO 161 0,0 km/h (0 Bft)
29.11.2018 05:00 -3,9 C 93 % 1027,4 hPa 0,0 mm S-SO 161 0,0 km/h (0 Bft)
29.11.2018 05:05 -4,0 C 93 % 1027,4 hPa 0,0 mm S-SO 161 0,0 km/h (0 Bft)
29.11.2018 05:10 -4,0 C 93 % 1027,5 hPa 0,0 mm S-SO 161 0,0 km/h (0 Bft)
29.11.2018 05:15 -4,1 C 93 % 1027,4 hPa 0,0 mm S-SO 161 0,0 km/h (0 Bft)
29.11.2018 05:20 -4,1 C 93 % 1027,4 hPa 0,0 mm S-SO 161 1,6 km/h (1 Bft)
29.11.2018 05:25 -4,1 C 93 % 1027,4 hPa 0,0 mm S-SO 161 0,0 km/h (0 Bft)
29.11.2018 05:30 -4,1 C 93 % 1027,4 hPa 0,0 mm S-SO 161 0,0 km/h (0 Bft)
29.11.2018 05:35 -4,1 C 93 % 1027,4 hPa 0,0 mm S-SO 161 0,0 km/h (0 Bft)
29.11.2018 05:40 -4,1 C 93 % 1027,4 hPa 0,0 mm S-SO 161 0,0 km/h (0 Bft)
29.11.2018 05:45 -4,2 C 93 % 1027,3 hPa 0,0 mm S-SO 161 0,0 km/h (0 Bft)
29.11.2018 05:50 -4,2 C 93 % 1027,3 hPa 0,0 mm S-SO 161 0,0 km/h (0 Bft)
29.11.2018 05:55 -4,2 C 93 % 1027,3 hPa 0,0 mm S-SO 161 0,0 km/h (0 Bft)
29.11.2018 06:00 -4,3 C 93 % 1027,4 hPa 0,0 mm S-SO 161 0,0 km/h (0 Bft)
29.11.2018 06:05 -4,3 C 93 % 1027,3 hPa 0,0 mm S-SO 161 0,0 km/h (0 Bft)
29.11.2018 06:10 -4,3 C 93 % 1027,4 hPa 0,0 mm S-SO 161 0,0 km/h (0 Bft)
29.11.2018 06:15 -4,4 C 93 % 1027,3 hPa 0,0 mm S-SO 161 0,0 km/h (0 Bft)
29.11.2018 06:20 -4,4 C 93 % 1027,3 hPa 0,0 mm S-SO 161 0,0 km/h (0 Bft)
29.11.2018 06:25 -4,5 C 93 % 1027,1 hPa 0,0 mm S-SO 161 0,0 km/h (0 Bft)
29.11.2018 06:30 -4,6 C 93 % 1027,0 hPa 0,0 mm S-SO 161 0,0 km/h (0 Bft)
29.11.2018 06:35 -4,6 C 93 % 1027,0 hPa 0,0 mm S-SO 161 0,0 km/h (0 Bft)
29.11.2018 06:40 -4,6 C 93 % 1027,1 hPa 0,0 mm S-SO 161 0,0 km/h (0 Bft)
29.11.2018 06:45 -4,6 C 93 % 1027,1 hPa 0,0 mm S-SO 161 1,6 km/h (1 Bft)
29.11.2018 06:50 -4,6 C 93 % 1027,0 hPa 0,0 mm S-SO 161 0,0 km/h (0 Bft)
29.11.2018 06:55 -4,6 C 93 % 1027,1 hPa 0,0 mm S-SO 161 0,0 km/h (0 Bft)
29.11.2018 07:00 -4,5 C 94 % 1027,0 hPa 0,0 mm S-SO 161 0,0 km/h (0 Bft)
29.11.2018 07:05 -4,6 C 93 % 1027,1 hPa 0,0 mm S-SO 161 0,0 km/h (0 Bft)
29.11.2018 07:10 -4,6 C 93 % 1027,1 hPa 0,0 mm S-SO 161 0,0 km/h (0 Bft)
29.11.2018 07:15 -4,7 C 93 % 1027,2 hPa 0,0 mm S-SO 161 0,0 km/h (0 Bft)
29.11.2018 07:20 -4,6 C 93 % 1027,3 hPa 0,0 mm S-SO 161 1,6 km/h (1 Bft)
29.11.2018 07:25 -4,6 C 93 % 1027,2 hPa 0,0 mm S-SO 161 0,0 km/h (0 Bft)
29.11.2018 07:30 -4,6 C 93 % 1027,3 hPa 0,0 mm S-SO 161 0,0 km/h (0 Bft)
29.11.2018 07:35 -4,6 C 93 % 1027,3 hPa 0,0 mm S-SO 161 0,0 km/h (0 Bft)
29.11.2018 07:40 -4,6 C 93 % 1027,2 hPa 0,0 mm S-SO 161 0,0 km/h (0 Bft)
29.11.2018 07:45 -4,6 C 93 % 1027,3 hPa 0,0 mm S-SO 161 0,0 km/h (0 Bft)
29.11.2018 07:50 -4,7 C 93 % 1027,3 hPa 0,0 mm S-SO 161 0,0 km/h (0 Bft)
29.11.2018 07:55 -4,7 C 93 % 1027,2 hPa 0,0 mm S-SO 161 0,0 km/h (0 Bft)
29.11.2018 08:00 -4,7 C 93 % 1027,2 hPa 0,0 mm S-SO 161 0,0 km/h (0 Bft)
29.11.2018 08:05 -4,7 C 93 % 1027,2 hPa 0,0 mm S-SO 161 0,0 km/h (0 Bft)
29.11.2018 08:10 -4,8 C 94 % 1027,1 hPa 0,0 mm S-SO 161 0,0 km/h (0 Bft)
29.11.2018 08:15 -4,7 C 94 % 1027,1 hPa 0,0 mm S-SO 161 0,0 km/h (0 Bft)
29.11.2018 08:20 -4,7 C 94 % 1027,1 hPa 0,0 mm S-SO 161 0,0 km/h (0 Bft)
29.11.2018 08:25 -4,7 C 94 % 1027,0 hPa 0,0 mm S-SO 161 4,8 km/h (1 Bft)
29.11.2018 08:30 -4,6 C 94 % 1026,9 hPa 0,0 mm S-SO 161 3,2 km/h (1 Bft)
29.11.2018 08:35 -4,5 C 94 % 1026,8 hPa 0,0 mm S-SO 161 4,8 km/h (1 Bft)
29.11.2018 08:40 -4,3 C 94 % 1026,8 hPa 0,0 mm S-SO 161 1,6 km/h (1 Bft)
29.11.2018 08:45 -3,9 C 94 % 1026,9 hPa 0,0 mm S-SO 161 4,8 km/h (1 Bft)
29.11.2018 08:50 -3,7 C 94 % 1026,7 hPa 0,0 mm S-SO 161 3,2 km/h (1 Bft)
29.11.2018 08:55 -3,2 C 94 % 1026,6 hPa 0,0 mm S-SO 161 6,4 km/h (2 Bft)
29.11.2018 09:00 -3,2 C 94 % 1026,6 hPa 0,0 mm S-SO 161 0,0 km/h (0 Bft)
29.11.2018 09:05 -2,6 C 94 % 1026,6 hPa 0,0 mm S-SO 161 4,8 km/h (1 Bft)
29.11.2018 09:10 -2,4 C 93 % 1026,5 hPa 0,0 mm S-SO 161 3,2 km/h (1 Bft)
29.11.2018 09:15 -2,3 C 93 % 1026,4 hPa 0,0 mm S-SO 161 4,8 km/h (1 Bft)
29.11.2018 09:20 -2,0 C 92 % 1026,3 hPa 0,0 mm S-SO 161 4,8 km/h (1 Bft)
29.11.2018 09:25 -2,1 C 92 % 1026,3 hPa 0,0 mm S-SO 161 3,2 km/h (1 Bft)
29.11.2018 09:30 -1,5 C 92 % 1026,3 hPa 0,0 mm S-SO 164 6,4 km/h (2 Bft)
29.11.2018 09:35 -1,5 C 90 % 1026,3 hPa 0,0 mm S-SO 164 4,8 km/h (1 Bft)
29.11.2018 09:40 -1,5 C 90 % 1026,3 hPa 0,0 mm S-SO 164 4,8 km/h (1 Bft)
29.11.2018 09:45 -1,1 C 90 % 1026,3 hPa 0,0 mm S-SO 164 4,8 km/h (1 Bft)
29.11.2018 09:50 -1,2 C 89 % 1026,3 hPa 0,0 mm S-SO 163 3,2 km/h (1 Bft)
29.11.2018 09:55 -1,1 C 89 % 1026,3 hPa 0,0 mm S-SO 164 6,4 km/h (2 Bft)
29.11.2018 10:00 -1,1 C 88 % 1026,2 hPa 0,0 mm S-SO 164 4,8 km/h (1 Bft)
29.11.2018 10:05 -1,1 C 89 % 1026,2 hPa 0,0 mm S-SO 155 6,4 km/h (2 Bft)
29.11.2018 10:10 -1,2 C 89 % 1026,1 hPa 0,0 mm S-SO 155 6,4 km/h (2 Bft)
29.11.2018 10:15 -1,1 C 89 % 1026,1 hPa 0,0 mm S-SO 155 4,8 km/h (1 Bft)
29.11.2018 10:20 -1,1 C 89 % 1026,1 hPa 0,0 mm S-SO 155 4,8 km/h (1 Bft)
29.11.2018 10:25 -0,9 C 88 % 1026,0 hPa 0,0 mm O-SO 110 8,0 km/h (2 Bft)
29.11.2018 10:30 -0,8 C 88 % 1026,0 hPa 0,0 mm S-SO 151 8,0 km/h (2 Bft)
29.11.2018 10:35 -0,9 C 88 % 1026,0 hPa 0,0 mm SO 140 8,0 km/h (2 Bft)
29.11.2018 10:40 -1,0 C 89 % 1025,9 hPa 0,0 mm SO 140 8,0 km/h (2 Bft)
29.11.2018 10:45 -1,1 C 89 % 1025,8 hPa 0,0 mm SO 141 8,0 km/h (2 Bft)
29.11.2018 10:50 -1,2 C 89 % 1025,7 hPa 0,0 mm SO 126 8,0 km/h (2 Bft)
29.11.2018 10:55 -1,2 C 89 % 1025,6 hPa 0,0 mm SO 135 9,7 km/h (2 Bft)
29.11.2018 11:00 -1,0 C 90 % 1025,6 hPa 0,0 mm SO 140 8,0 km/h (2 Bft)
29.11.2018 11:05 -1,0 C 90 % 1025,5 hPa 0,0 mm SO 134 9,7 km/h (2 Bft)
29.11.2018 11:10 -0,9 C 91 % 1025,4 hPa 0,0 mm O-SO 120 11,3 km/h (2 Bft)
29.11.2018 11:15 -1,0 C 90 % 1025,4 hPa 0,0 mm SO 138 8,0 km/h (2 Bft)
29.11.2018 11:20 -1,0 C 91 % 1025,3 hPa 0,0 mm SO 141 9,7 km/h (2 Bft)
29.11.2018 11:25 -1,0 C 91 % 1025,2 hPa 0,0 mm S-SO 150 9,7 km/h (2 Bft)
29.11.2018 11:30 -0,9 C 91 % 1025,1 hPa 0,0 mm SO 146 9,7 km/h (2 Bft)
29.11.2018 11:35 -0,8 C 90 % 1025,0 hPa 0,0 mm SO 129 9,7 km/h (2 Bft)
29.11.2018 11:40 -0,7 C 91 % 1024,9 hPa 0,0 mm SO 130 12,9 km/h (3 Bft)
29.11.2018 11:45 -0,6 C 91 % 1024,7 hPa 0,0 mm O-SO 121 12,9 km/h (3 Bft)
29.11.2018 11:50 -0,6 C 91 % 1024,7 hPa 0,0 mm O 101 11,3 km/h (2 Bft)
29.11.2018 11:55 -0,6 C 91 % 1024,6 hPa 0,0 mm O-SO 119 12,9 km/h (3 Bft)
29.11.2018 12:00 -0,6 C 91 % 1024,6 hPa 0,0 mm O-SO 104 11,3 km/h (2 Bft)
29.11.2018 12:05 -0,7 C 91 % 1024,4 hPa 0,0 mm O-SO 105 12,9 km/h (3 Bft)
29.11.2018 12:10 -0,7 C 91 % 1024,4 hPa 0,0 mm O-SO 105 11,3 km/h (2 Bft)
29.11.2018 12:15 -0,7 C 92 % 1024,3 hPa 0,0 mm O-SO 120 12,9 km/h (3 Bft)
29.11.2018 12:20 -0,6 C 92 % 1024,2 hPa 0,0 mm O 101 11,3 km/h (2 Bft)
29.11.2018 12:25 -0,3 C 92 % 1024,1 hPa 0,0 mm O-SO 114 12,9 km/h (3 Bft)
29.11.2018 12:30 -0,3 C 92 % 1024,1 hPa 0,0 mm O-NO 74 12,9 km/h (3 Bft)
29.11.2018 12:35 -0,3 C 92 % 1023,9 hPa 0,0 mm O-NO 74 16,1 km/h (3 Bft)
29.11.2018 12:40 -0,4 C 92 % 1023,8 hPa 0,0 mm O 85 14,5 km/h (3 Bft)
29.11.2018 12:45 -0,4 C 92 % 1023,7 hPa 0,0 mm O 88 17,7 km/h (3 Bft)
29.11.2018 12:50 -0,5 C 92 % 1023,6 hPa 0,0 mm O 90 17,7 km/h (3 Bft)
29.11.2018 12:55 -0,5 C 92 % 1023,7 hPa 0,0 mm O-NO 72 16,1 km/h (3 Bft)
29.11.2018 13:00 -0,6 C 92 % 1023,7 hPa 0,0 mm O-NO 75 14,5 km/h (3 Bft)
29.11.2018 13:05 -0,5 C 93 % 1023,7 hPa 0,0 mm O 96 16,1 km/h (3 Bft)
29.11.2018 13:10 -0,4 C 93 % 1023,7 hPa 0,0 mm O 98 16,1 km/h (3 Bft)
29.11.2018 13:15 -0,4 C 93 % 1023,6 hPa 0,0 mm SO 126 17,7 km/h (3 Bft)
29.11.2018 13:20 -0,4 C 93 % 1023,5 hPa 0,0 mm O-NO 63 19,3 km/h (3 Bft)
29.11.2018 13:25 -0,4 C 93 % 1023,4 hPa 0,0 mm NO 51 17,7 km/h (3 Bft)
29.11.2018 13:30 -0,4 C 93 % 1023,3 hPa 0,0 mm O-NO 75 17,7 km/h (3 Bft)
29.11.2018 13:35 -0,4 C 93 % 1023,4 hPa 0,0 mm O 86 24,1 km/h (4 Bft)
29.11.2018 13:40 -0,4 C 93 % 1023,4 hPa 0,0 mm O 98 17,7 km/h (3 Bft)
29.11.2018 13:45 -0,4 C 93 % 1023,3 hPa 0,0 mm O 88 17,7 km/h (3 Bft)
29.11.2018 13:50 -0,5 C 93 % 1023,2 hPa 0,0 mm O-NO 67 16,1 km/h (3 Bft)
29.11.2018 13:55 -0,6 C 93 % 1023,2 hPa 0,0 mm O-NO 78 17,7 km/h (3 Bft)
29.11.2018 14:00 -0,6 C 93 % 1023,1 hPa 0,0 mm O 85 19,3 km/h (3 Bft)
29.11.2018 14:05 -0,6 C 93 % 1023,1 hPa 0,0 mm O 83 16,1 km/h (3 Bft)
29.11.2018 14:10 -0,7 C 93 % 1023,2 hPa 0,0 mm O 80 16,1 km/h (3 Bft)
29.11.2018 14:15 -0,9 C 93 % 1023,1 hPa 0,0 mm O 94 16,1 km/h (3 Bft)
29.11.2018 14:20 -0,9 C 93 % 1023,0 hPa 0,0 mm O 86 16,1 km/h (3 Bft)
29.11.2018 14:25 -0,9 C 93 % 1023,1 hPa 0,0 mm O 86 12,9 km/h (3 Bft)
29.11.2018 14:30 -1,0 C 93 % 1023,0 hPa 0,0 mm O 90 16,1 km/h (3 Bft)
29.11.2018 14:35 -1,1 C 93 % 1023,1 hPa 0,0 mm O 96 12,9 km/h (3 Bft)
29.11.2018 14:40 -1,1 C 93 % 1023,0 hPa 0,0 mm O 98 17,7 km/h (3 Bft)
29.11.2018 14:45 -1,1 C 93 % 1023,1 hPa 0,0 mm O-NO 65 16,1 km/h (3 Bft)
29.11.2018 14:50 -1,1 C 93 % 1023,1 hPa 0,0 mm O-NO 73 20,9 km/h (4 Bft)
29.11.2018 14:55 -1,2 C 94 % 1023,1 hPa 0,0 mm O-NO 68 17,7 km/h (3 Bft)
29.11.2018 15:00 -1,3 C 94 % 1023,1 hPa 0,0 mm O 91 16,1 km/h (3 Bft)
29.11.2018 15:05 -1,3 C 94 % 1023,0 hPa 0,0 mm O-NO 68 17,7 km/h (3 Bft)
29.11.2018 15:10 -1,3 C 94 % 1023,0 hPa 0,0 mm O-NO 71 17,7 km/h (3 Bft)
29.11.2018 15:15 -1,4 C 94 % 1023,0 hPa 0,0 mm O 82 17,7 km/h (3 Bft)
29.11.2018 15:20 -1,4 C 94 % 1023,0 hPa 0,0 mm O-NO 57 14,5 km/h (3 Bft)
29.11.2018 15:25 -1,5 C 94 % 1023,0 hPa 0,0 mm O 85 16,1 km/h (3 Bft)
29.11.2018 15:30 -1,6 C 94 % 1023,1 hPa 0,0 mm O-NO 62 14,5 km/h (3 Bft)
29.11.2018 15:35 -1,6 C 94 % 1023,0 hPa 0,0 mm O-NO 74 16,1 km/h (3 Bft)
29.11.2018 15:40 -1,6 C 94 % 1023,0 hPa 0,0 mm O-NO 68 17,7 km/h (3 Bft)
29.11.2018 15:45 -1,7 C 94 % 1022,9 hPa 0,0 mm O-NO 62 14,5 km/h (3 Bft)
29.11.2018 15:50 -1,7 C 94 % 1022,9 hPa 0,0 mm O-NO 71 14,5 km/h (3 Bft)
29.11.2018 15:55 -1,7 C 94 % 1022,9 hPa 0,0 mm O-NO 67 16,1 km/h (3 Bft)
29.11.2018 16:00 -1,8 C 94 % 1023,0 hPa 0,0 mm O 86 16,1 km/h (3 Bft)
29.11.2018 16:05 -1,8 C 94 % 1023,0 hPa 0,0 mm O-NO 66 17,7 km/h (3 Bft)
29.11.2018 16:10 -1,8 C 94 % 1023,0 hPa 0,0 mm O 81 17,7 km/h (3 Bft)
29.11.2018 16:15 -1,8 C 94 % 1023,0 hPa 0,0 mm O-NO 57 16,1 km/h (3 Bft)
29.11.2018 16:20 -1,9 C 94 % 1022,8 hPa 0,0 mm O-NO 57 17,7 km/h (3 Bft)
29.11.2018 16:25 -2,1 C 94 % 1022,9 hPa 0,0 mm O-NO 61 17,7 km/h (3 Bft)
29.11.2018 16:30 -2,1 C 94 % 1023,0 hPa 0,0 mm NO 53 17,7 km/h (3 Bft)
29.11.2018 16:35 -2,1 C 94 % 1022,8 hPa 0,0 mm O-NO 70 17,7 km/h (3 Bft)
29.11.2018 16:40 -2,1 C 94 % 1022,8 hPa 0,0 mm NO 46 16,1 km/h (3 Bft)
29.11.2018 16:45 -2,2 C 94 % 1022,8 hPa 0,0 mm O-NO 59 17,7 km/h (3 Bft)
29.11.2018 16:50 -2,2 C 94 % 1022,7 hPa 0,0 mm O-NO 65 17,7 km/h (3 Bft)
29.11.2018 16:55 -2,3 C 94 % 1022,7 hPa 0,0 mm O 90 17,7 km/h (3 Bft)
29.11.2018 17:00 -2,3 C 94 % 1022,7 hPa 0,0 mm O-NO 68 16,1 km/h (3 Bft)
29.11.2018 17:05 -2,3 C 94 % 1022,7 hPa 0,0 mm O 79 16,1 km/h (3 Bft)
29.11.2018 17:10 -2,2 C 94 % 1022,7 hPa 0,0 mm O-NO 68 14,5 km/h (3 Bft)
29.11.2018 17:15 -2,2 C 94 % 1022,6 hPa 0,0 mm O-NO 59 17,7 km/h (3 Bft)
29.11.2018 17:20 -2,2 C 94 % 1022,6 hPa 0,0 mm O-NO 77 14,5 km/h (3 Bft)
29.11.2018 17:25 -2,2 C 94 % 1022,5 hPa 0,0 mm O 82 19,3 km/h (3 Bft)
29.11.2018 17:30 -2,3 C 94 % 1022,6 hPa 0,0 mm O 85 14,5 km/h (3 Bft)
29.11.2018 17:35 -2,3 C 94 % 1022,4 hPa 0,0 mm O-NO 71 16,1 km/h (3 Bft)
29.11.2018 17:40 -2,3 C 94 % 1022,5 hPa 0,0 mm O 82 14,5 km/h (3 Bft)
29.11.2018 17:45 -2,3 C 94 % 1022,4 hPa 0,0 mm O 82 16,1 km/h (3 Bft)
29.11.2018 17:50 -2,3 C 94 % 1022,3 hPa 0,0 mm O 89 16,1 km/h (3 Bft)
29.11.2018 17:55 -2,3 C 94 % 1022,2 hPa 0,0 mm O-NO 68 14,5 km/h (3 Bft)
29.11.2018 18:00 -2,3 C 94 % 1022,3 hPa 0,0 mm O-NO 77 12,9 km/h (3 Bft)
29.11.2018 18:05 -2,3 C 94 % 1022,4 hPa 0,0 mm O 84 11,3 km/h (2 Bft)
29.11.2018 18:10 -2,3 C 94 % 1022,2 hPa 0,0 mm O 90 12,9 km/h (3 Bft)
29.11.2018 18:15 -2,3 C 94 % 1022,3 hPa 0,0 mm O-NO 59 14,5 km/h (3 Bft)
29.11.2018 18:20 -2,2 C 94 % 1022,2 hPa 0,0 mm O 84 12,9 km/h (3 Bft)
29.11.2018 18:25 -2,2 C 94 % 1022,3 hPa 0,0 mm O 84 12,9 km/h (3 Bft)
29.11.2018 18:30 -2,2 C 94 % 1022,1 hPa 0,0 mm O 98 14,5 km/h (3 Bft)
29.11.2018 18:35 -2,3 C 94 % 1022,1 hPa 0,0 mm O-NO 75 14,5 km/h (3 Bft)
29.11.2018 18:40 -2,3 C 94 % 1021,9 hPa 0,0 mm O-SO 103 14,5 km/h (3 Bft)
29.11.2018 18:45 -2,3 C 94 % 1021,9 hPa 0,0 mm O-SO 111 17,7 km/h (3 Bft)
29.11.2018 18:50 -2,3 C 94 % 1021,9 hPa 0,0 mm O 94 14,5 km/h (3 Bft)
29.11.2018 18:55 -2,2 C 94 % 1021,8 hPa 0,0 mm O 90 14,5 km/h (3 Bft)
29.11.2018 19:00 -2,3 C 94 % 1021,8 hPa 0,0 mm O-SO 103 14,5 km/h (3 Bft)
29.11.2018 19:05 -2,3 C 94 % 1021,8 hPa 0,0 mm O 81 12,9 km/h (3 Bft)
29.11.2018 19:10 -2,3 C 94 % 1021,9 hPa 0,0 mm O 79 11,3 km/h (2 Bft)
29.11.2018 19:15 -2,3 C 94 % 1021,8 hPa 0,0 mm O 82 11,3 km/h (2 Bft)
29.11.2018 19:20 -2,3 C 94 % 1021,8 hPa 0,0 mm O 84 12,9 km/h (3 Bft)
29.11.2018 19:25 -2,3 C 94 % 1021,9 hPa 0,0 mm O 100 12,9 km/h (3 Bft)
29.11.2018 19:30 -2,3 C 94 % 1021,8 hPa 0,0 mm O 88 11,3 km/h (2 Bft)
29.11.2018 19:35 -2,3 C 94 % 1021,8 hPa 0,0 mm O 92 12,9 km/h (3 Bft)
29.11.2018 19:40 -2,3 C 94 % 1021,6 hPa 0,0 mm O 90 9,7 km/h (2 Bft)
29.11.2018 19:45 -2,3 C 94 % 1021,7 hPa 0,0 mm O 84 11,3 km/h (2 Bft)
29.11.2018 19:50 -2,3 C 94 % 1021,6 hPa 0,0 mm O 97 14,5 km/h (3 Bft)
29.11.2018 19:55 -2,3 C 94 % 1021,6 hPa 0,0 mm O-SO 107 11,3 km/h (2 Bft)
29.11.2018 20:00 -2,3 C 94 % 1021,7 hPa 0,0 mm O-SO 115 11,3 km/h (2 Bft)
29.11.2018 20:05 -2,3 C 94 % 1021,6 hPa 0,0 mm O 98 9,7 km/h (2 Bft)
29.11.2018 20:10 -2,3 C 94 % 1021,6 hPa 0,0 mm O-SO 106 11,3 km/h (2 Bft)
29.11.2018 20:15 -2,4 C 94 % 1021,6 hPa 0,0 mm O-SO 109 11,3 km/h (2 Bft)
29.11.2018 20:20 -2,4 C 94 % 1021,6 hPa 0,0 mm O-SO 115 8,0 km/h (2 Bft)
29.11.2018 20:25 -2,3 C 94 % 1021,6 hPa 0,0 mm O-SO 115 8,0 km/h (2 Bft)
29.11.2018 20:30 -2,3 C 94 % 1021,5 hPa 0,0 mm O-SO 110 11,3 km/h (2 Bft)
29.11.2018 20:35 -2,3 C 94 % 1021,6 hPa 0,0 mm O-SO 119 11,3 km/h (2 Bft)
29.11.2018 20:40 -2,3 C 94 % 1021,6 hPa 0,0 mm O-SO 112 12,9 km/h (3 Bft)
29.11.2018 20:45 -2,3 C 93 % 1021,7 hPa 0,0 mm O 83 9,7 km/h (2 Bft)
29.11.2018 20:50 -2,3 C 94 % 1021,9 hPa 0,0 mm O 98 9,7 km/h (2 Bft)
29.11.2018 20:55 -2,3 C 94 % 1021,8 hPa 0,0 mm O 99 11,3 km/h (2 Bft)
29.11.2018 21:00 -2,3 C 94 % 1021,6 hPa 0,0 mm O-NO 76 12,9 km/h (3 Bft)
29.11.2018 21:05 -2,2 C 94 % 1021,6 hPa 0,0 mm O 95 12,9 km/h (3 Bft)
29.11.2018 21:10 -2,3 C 94 % 1021,8 hPa 0,0 mm O 92 14,5 km/h (3 Bft)
29.11.2018 21:15 -2,3 C 93 % 1021,9 hPa 0,0 mm O 90 12,9 km/h (3 Bft)
29.11.2018 21:20 -2,4 C 93 % 1021,9 hPa 0,0 mm O-SO 113 12,9 km/h (3 Bft)
29.11.2018 21:25 -2,4 C 94 % 1021,9 hPa 0,0 mm O-SO 113 8,0 km/h (2 Bft)
29.11.2018 21:30 -2,4 C 94 % 1021,9 hPa 0,0 mm O-SO 117 8,0 km/h (2 Bft)
29.11.2018 21:35 -2,4 C 94 % 1021,8 hPa 0,0 mm O-SO 109 6,4 km/h (2 Bft)
29.11.2018 21:40 -2,4 C 94 % 1021,9 hPa 0,0 mm O 93 9,7 km/h (2 Bft)
29.11.2018 21:45 -2,4 C 94 % 1021,8 hPa 0,0 mm O 94 12,9 km/h (3 Bft)
29.11.2018 21:50 -2,4 C 94 % 1021,8 hPa 0,0 mm O-SO 103 12,9 km/h (3 Bft)
29.11.2018 21:55 -2,4 C 94 % 1021,8 hPa 0,0 mm O 95 11,3 km/h (2 Bft)
29.11.2018 22:00 -2,4 C 94 % 1021,8 hPa 0,0 mm O 90 9,7 km/h (2 Bft)
29.11.2018 22:05 -2,4 C 94 % 1021,7 hPa 0,0 mm O 100 11,3 km/h (2 Bft)
29.11.2018 22:10 -2,4 C 94 % 1021,5 hPa 0,0 mm O 80 11,3 km/h (2 Bft)
29.11.2018 22:15 -2,4 C 94 % 1021,6 hPa 0,0 mm O 85 12,9 km/h (3 Bft)
29.11.2018 22:20 -2,4 C 94 % 1021,5 hPa 0,0 mm O-SO 105 14,5 km/h (3 Bft)
29.11.2018 22:25 -2,4 C 94 % 1021,5 hPa 0,0 mm O 92 12,9 km/h (3 Bft)
29.11.2018 22:30 -2,5 C 94 % 1021,4 hPa 0,0 mm O 91 11,3 km/h (2 Bft)
29.11.2018 22:35 -2,5 C 94 % 1021,4 hPa 0,0 mm O 87 11,3 km/h (2 Bft)
29.11.2018 22:40 -2,5 C 94 % 1021,2 hPa 0,0 mm O-SO 105 11,3 km/h (2 Bft)
29.11.2018 22:45 -2,5 C 94 % 1021,2 hPa 0,0 mm O-SO 117 11,3 km/h (2 Bft)
29.11.2018 22:50 -2,5 C 94 % 1021,3 hPa 0,0 mm O-SO 108 11,3 km/h (2 Bft)
29.11.2018 22:55 -2,4 C 94 % 1021,3 hPa 0,0 mm O-NO 77 12,9 km/h (3 Bft)
29.11.2018 23:00 -2,5 C 94 % 1021,1 hPa 0,0 mm O-NO 77 12,9 km/h (3 Bft)
29.11.2018 23:05 -2,5 C 94 % 1021,1 hPa 0,0 mm NO 53 12,9 km/h (3 Bft)
29.11.2018 23:10 -2,6 C 94 % 1021,1 hPa 0,0 mm O 97 12,9 km/h (3 Bft)
29.11.2018 23:15 -2,5 C 94 % 1021,0 hPa 0,0 mm O 90 12,9 km/h (3 Bft)
29.11.2018 23:20 -2,5 C 94 % 1021,1 hPa 0,0 mm O 96 11,3 km/h (2 Bft)
29.11.2018 23:25 -2,6 C 94 % 1021,0 hPa 0,0 mm O-NO 68 12,9 km/h (3 Bft)
29.11.2018 23:30 -2,6 C 94 % 1021,0 hPa 0,0 mm O 87 11,3 km/h (2 Bft)
29.11.2018 23:35 -2,6 C 94 % 1021,0 hPa 0,0 mm O 96 9,7 km/h (2 Bft)
29.11.2018 23:40 -2,6 C 94 % 1021,0 hPa 0,0 mm O-SO 108 11,3 km/h (2 Bft)
29.11.2018 23:45 -2,6 C 94 % 1021,0 hPa 0,0 mm O-SO 109 11,3 km/h (2 Bft)
29.11.2018 23:50 -2,6 C 94 % 1021,0 hPa 0,0 mm O 87 9,7 km/h (2 Bft)
29.11.2018 23:55 -2,7 C 94 % 1021,0 hPa 0,0 mm O-NO 66 11,3 km/h (2 Bft)
_ Min-Zeit 08:05 10:00 23:15 - - - 01:00
Minimum _ -4,8 C 88 % 1021,0 hPa - - - 0,0 km/h (0 Bft)
_ Max-Zeit 12:25 07:00 01:05 00:00 - - 13:35
Maximum _ -0,3 C 94 % 1028,5 hPa 0,0 mm - - 24,1 km/h
O-NO (4 Bft)
Durchschnitt _ -2,3 C 93 % 1024,8 hPa #0,0 mm S-SO - 8,7 km/h (2 Bft)